IU7URP-17 Weather Reports


Display with metric or nautical units.
time (UTC)temp
F
wind
direction
speed
MPH
gust
MPH
rain 1hr
in
rain 24hr
in
rain mn
in
humidity
%
barometer
mb
20260906043540 71 0.0 0.0 0.00 0.00 0.00 72 1019.8
20260906035531 70 0.0 0.0 0.00 0.00 0.00 74 1019.5
20260906033527 70 0.0 0.0 0.00 0.00 0.00 74 1019.6
20260906031521 70 0.0 0.0 0.00 0.00 0.00 76 1019.5
20260906025517 70 0.0 0.0 0.00 0.00 0.00 76 1019.6
20260906021509 71 0.0 0.0 0.00 0.00 0.00 74 1019.5
20260906015505 71 0.0 0.0 0.00 0.00 0.00 76 1019.5
20260906013501 71 0.0 0.0 0.00 0.00 0.00 76 1019.6
20260906011457 70 0.0 0.0 0.00 0.00 0.00 77 1019.6
20260906005453 69 0.0 0.0 0.00 0.00 0.00 77 1019.4
20260906003449 73 0.0 0.0 0.00 0.00 0.00 73 1019.3
20260906001445 74 0.0 0.0 0.00 0.00 0.00 72 1019.4
20260905235441 75 0.0 0.0 0.00 0.00 0.00 70 1019.3
20260905233437 75 0.0 0.0 0.00 0.00 0.00 70 1019.5
20260905231434 75 0.0 0.0 0.00 0.00 0.00 69 1019.6
20260905225429 75 0.0 0.0 0.00 0.00 0.00 68 1019.6
20260905223425 74 0.0 0.0 0.00 0.00 0.00 68 1019.7
20260905221422 75 0.0 0.0 0.00 0.00 0.00 66 1019.7
20260905215418 76 0.0 0.0 0.00 0.00 0.00 66 1019.5
20260905213414 76 0.0 0.0 0.00 0.00 0.00 65 1019.3
20260905211409 76 0.0 0.0 0.00 0.00 0.00 65 1019.5
20260905205405 76 0.0 0.0 0.00 0.00 0.00 64 1019.4
20260905203402 77 0.0 0.0 0.00 0.00 0.00 62 1019.3
20260905201358 77 0.0 0.0 0.00 0.00 0.00 58 1019.3
20260905195354 78 0.0 0.0 0.00 0.00 0.00 56 1019.4
20260905193350 78 0.0 0.0 0.00 0.00 0.00 53 1019.3
20260905191345 78 0.0 0.0 0.00 0.00 0.00 51 1019.1
20260905185341 79 0.0 0.0 0.00 0.00 0.00 51 1018.9
20260905183337 79 0.0 0.0 0.00 0.00 0.00 49 1018.8
20260905181333 79 0.0 0.0 0.00 0.00 0.00 47 1018.6
20260905175329 80 0.0 0.0 0.00 0.00 0.00 44 1018.4
20260905165316 85 0.0 0.0 0.00 0.00 0.00 38 1017.9
20260905163312 88 0.0 0.0 0.00 0.00 0.00 33 1017.8
20260905161308 89 0.0 0.0 0.00 0.00 0.00 35 1017.7
20260905155306 90 0.0 0.0 0.00 0.00 0.00 33 1017.7
20260905153300 92 0.0 0.0 0.00 0.00 0.00 29 1017.8
20260905151256 93 0.0 0.0 0.00 0.00 0.00 30 1017.8
20260905145252 94 0.0 0.0 0.00 0.00 0.00 31 1017.9
20260905143248 94 0.0 0.0 0.00 0.00 0.00 31 1018.0
20260905141244 94 0.0 0.0 0.00 0.00 0.00 30 1018.1
20260905135240 95 0.0 0.0 0.00 0.00 0.00 31 1018.1
20260905133236 96 0.0 0.0 0.00 0.00 0.00 30 1018.1
20260905131232 96 0.0 0.0 0.00 0.00 0.00 30 1018.3
20260905125228 97 0.0 0.0 0.00 0.00 0.00 30 1018.3
20260905123224 96 0.0 0.0 0.00 0.00 0.00 31 1018.4
20260905121220 96 0.0 0.0 0.00 0.00 0.00 33 1018.6
20260905115215 97 0.0 0.0 0.00 0.00 0.00 32 1018.7
20260905113211 96 0.0 0.0 0.00 0.00 0.00 32 1018.9
20260905111207 97 0.0 0.0 0.00 0.00 0.00 29 1018.7
20260905105203 96 0.0 0.0 0.00 0.00 0.00 33 1018.9
20260905103159 96 0.0 0.0 0.00 0.00 0.00 32 1019.0
20260905095150 95 0.0 0.0 0.00 0.00 0.00 32 1019.4
20260905093146 92 0.0 0.0 0.00 0.00 0.00 38 1019.7
20260905091143 93 0.0 0.0 0.00 0.00 0.00 39 1019.8
20260905085138 93 0.0 0.0 0.00 0.00 0.00 41 1019.9
20260905083134 90 0.0 0.0 0.00 0.00 0.00 48 1020.0
20260905081130 89 0.0 0.0 0.00 0.00 0.00 50 1020.0
20260905075126 87 0.0 0.0 0.00 0.00 0.00 55 1020.0
20260905073122 86 0.0 0.0 0.00 0.00 0.00 60 1020.0
20260905071118 83 0.0 0.0 0.00 0.00 0.00 66 1020.0
20260905063110 81 0.0 0.0 0.00 0.00 0.00 66 1020.1
20260905061106 79 0.0 0.0 0.00 0.00 0.00 68 1020.3
20260905055102 76 0.0 0.0 0.00 0.00 0.00 72 1020.4
20260905053058 74 0.0 0.0 0.00 0.00 0.00 76 1020.4
20260905045050 70 0.0 0.0 0.00 0.00 0.00 85 1020.3